Tracking 20092 objects as of 14-Dec-2019
HD Live streaming from Space Station
objects crossing your sky now

FENGYUN 1C DEB

Track FENGYUN 1C DEB now!
10-day predictions


NORAD ID: 36196
Int'l Code: 1999-025DTV
Perigee: 822.9 km
Apogee: 880.5 km
Inclination: 99.0 °
Period: 101.8 minutes
Semi major axis: 7222 km
RCS: 0.0113 m2 (small)
Launch date: May 10, 1999
Source: People's Republic of China (PRC)
Launch site: Taiyaun Space Center, China (TSC)

Note: This is SATELLITE DEBRIS
aabbcc
Your satellite tracking list
Your tracking list is empty




NASA's NSSDC Master Catalog

Two Line Element Set (TLE):
1 36196U 99025DTV 19346.02706304  .00000830  00000-0  45474-3 0  9993
2 36196  99.0217  76.2140 0039885 327.2473  32.6227 14.14334478612253
Source of the keplerian elements: AFSPC